York, PA

3:41 AM EST on December 11, 2019 (GMT -0500)
York

Weather History for KTHV - October, 2019

Change the Weather History Date:

Saturday, October 5, 2019

  Actual Average Record
Temperature  
Mean Temperature 50 °F -  
Max Temperature 64 °F 0 °F 87 °F (2013)
Min Temperature 36 °F - 35 °F (1999)
Degree Days  
Heating Degree Days 15    
Moisture  
Dew Point 38 °F    
Average Humidity 64    
Maximum Humidity 93    
Minimum Humidity 43    
Precipitation  
Precipitation 0.00 in - - ()
Sea Level Pressure  
Sea Level Pressure 30.38 in    
Wind  
Wind Speed 4 mph ()    
Max Wind Speed 14 mph    
Max Gust Speed 17 mph    
Visibility 10.0 miles    
Events      
Averages and records for this station are not official NWS values.
T = Trace of Precipitation, MM = Missing Value Source: Averaged Metar Reports

Daily Weather History Graph

Daily Weather History Graph

Search for Another Location

Airport or City:

Astronomy

Oct. 05, 2019 Rise Set
Actual Time 7:07 AM EDT 6:43 PM EDT
Civil Twilight 6:40 AM EDT 7:10 PM EDT
Nautical Twilight 6:09 AM EDT 7:42 PM EDT
Astronomical Twilight 5:37 AM EDT 8:13 PM EDT
Moon 2:30 PM EDT (10/5) No Moon Set
Length of Visible Light 12h 30m
Length of Day
11h 36m
Waxing Crescent, 50% of the Moon is Illuminated
Oct 5
Waxing Crescent
Oct 5
First Quarter
Oct 13
Full
Oct 21
Last Quarter
Oct 27
New

Hourly Weather History & Observations

Time (EDT) Temp. Windchill Dew Point Humidity Pressure Visibility Wind Dir Wind Speed Gust Speed Precip Events Conditions
12:53 AM 43.0 °F - 37.0 °F 80% 30.38 in 10.0 mi Calm Calm - N/A   Clear
1:53 AM 43.0 °F - 36.0 °F 76% 30.39 in 10.0 mi Calm Calm - N/A   Clear
2:53 AM 37.9 °F - 36.0 °F 93% 30.40 in 10.0 mi Calm Calm - N/A   Clear
3:53 AM 37.9 °F - 34.0 °F 86% 30.40 in 10.0 mi Calm Calm - N/A   Clear
4:53 AM 37.0 °F - 34.0 °F 89% 30.40 in 10.0 mi Calm Calm - N/A   Clear
5:53 AM 36.0 °F - 34.0 °F 93% 30.41 in 10.0 mi Calm Calm - N/A   Clear
6:53 AM 36.0 °F - 33.1 °F 89% 30.43 in 10.0 mi Calm Calm - N/A   Clear
7:53 AM 39.9 °F 37.8 °F 36.0 °F 86% 30.44 in 10.0 mi ENE 3.5 mph - N/A   Clear
8:53 AM 46.0 °F 42.5 °F 36.0 °F 68% 30.45 in 10.0 mi East 6.9 mph - N/A   Clear
9:53 AM 48.9 °F - 36.0 °F 61% 30.46 in 10.0 mi East 9.2 mph - N/A   Mostly Cloudy
10:53 AM 53.1 °F - 37.0 °F 55% 30.45 in 10.0 mi East 9.2 mph - N/A   Clear
11:53 AM 57.0 °F - 37.9 °F 49% 30.43 in 10.0 mi East 6.9 mph - N/A   Clear
12:53 PM 61.0 °F - 41.0 °F 48% 30.42 in 10.0 mi Variable 6.9 mph - N/A   Mostly Cloudy
1:53 PM 60.1 °F - 39.9 °F 47% 30.38 in 10.0 mi SSE 6.9 mph - N/A   Scattered Clouds
2:53 PM 62.1 °F - 39.9 °F 44% 30.36 in 10.0 mi SE 9.2 mph - N/A   Partly Cloudy
3:53 PM 64.0 °F - 41.0 °F 43% 30.34 in 10.0 mi SE 11.5 mph 16.1 mph N/A   Partly Cloudy
4:53 PM 61.0 °F - 39.9 °F 46% 30.33 in 10.0 mi Variable 5.8 mph - N/A   Partly Cloudy
5:53 PM 61.0 °F - 41.0 °F 48% 30.33 in 10.0 mi SE 10.4 mph - N/A   Clear
6:53 PM 57.0 °F - 41.0 °F 55% 30.32 in 10.0 mi SE 5.8 mph - N/A   Clear
7:53 PM 55.9 °F - 41.0 °F 57% 30.32 in 10.0 mi SE 6.9 mph - N/A   Mostly Cloudy
8:53 PM 57.0 °F - 39.9 °F 53% 30.32 in 10.0 mi SE 13.8 mph - N/A   Overcast
9:53 PM 55.9 °F - 41.0 °F 57% 30.32 in 10.0 mi Variable 6.9 mph - N/A   Overcast
10:53 PM 55.0 °F - 41.0 °F 59% 30.32 in 10.0 mi SE 8.1 mph - N/A   Overcast
11:53 PM 55.9 °F - 43.0 °F 62% 30.31 in 10.0 mi SSE 8.1 mph 17.3 mph N/A   Overcast